Temperature
24 23 22 22 22 21 21 21 20 20 20 20 19 19 19 19 19 18 17 17 16 16 16 15 15 15 15 15 15 15 16 16 16 17 17 18 18 18 18 18 18 19 18
23 22 22 22 22 21 21 21 21 20 20 20 20 20 20 19 18 18 17 16 16 16 15 15 15 15 15 15 15 15 15 16 16 16 17 18 19 19 19 18 18 18 18
24 23 22 22 22 21 21 21 20 20 20 20 19 19 19 19 18 18 17 16 16 16 16 15 15 15 15 15 15 15 14 15 16 16 16 18 19 20 20 19 18 18 18
24 23 23 22 22 21 21 20 20 20 20 20 19 19 19 19 19 18 17 16 16 15 15 15 15 15 14 14 14 14 14 14 15 15 16 16 17 18 19 19 18 17 17
21 21 21 20 20 20 20 19 19 19 19 19 19 19 19 18 18 17 17 17 15 15 14 14 14 14 14 14 14 14 14 14 14 15 15 16 16 16 16 18 18 18 17
18 18 18 18 19 19 19 19 19 19 19 19 19 19 18 18 18 17 16 16 15 15 14 14 14 14 14 14 14 14 14 14 14 14 15 15 15 16 16 17 17 17 17
16 15 16 16 17 17 18 18 18 18 18 18 18 18 18 18 17 17 16 16 15 15 14 14 14 14 13 14 13 13 13 13 14 14 14 14 15 15 15 16 16 16 16
15 14 14 14 14 14 15 15 16 16 16 16 17 17 17 17 16 16 16 15 15 15 14 14 14 14 13 13 13 13 13 13 14 14 14 14 14 15 15 15 15 15 15
14 14 13 13 13 13 13 13 14 14 14 15 15 16 16 16 16 16 16 15 15 15 14 14 14 13 13 13 13 13 13 13 13 14 14 14 14 15 15 15 15 14 14
14 14 13 13 12 12 12 12 12 13 13 14 14 14 14 15 15 15 15 15 15 15 14 14 13 13 13 13 13 13 13 13 13 14 14 14 14 14 14 14 14 14 14
14 14 13 12 12 12 11 11 11 12 12 12 13 13 13 14 14 14 14 14 14 14 14 14 13 13 13 12 13 13 13 13 13 13 13 13 14 14 14 14 14 14 14
14 13 13 12 11 11 11 11 10 11 11 11 11 11 12 12 12 13 13 13 13 14 14 13 13 13 12 12 12 13 13 13 13 13 13 13 13 13 13 13 13 13 13
13 12 12 11 11 10 10 10 10 10 10 10 10 10 10 10 11 11 12 12 13 13 13 13 13 12 12 12 12 12 12 12 13 13 13 13 13 13 13 13 13 13 13
11 10 10 10 10 9 9 9 9 9 9 9 9 9 9 9 10 10 11 11 12 12 12 12 12 12 12 12 12 12 12 12 12 12 12 12 12 12 12 12 12 12 12
10 10 10 10 10 9 9 9 9 9 9 8 8 8 9 9 9 9 10 10 11 11 12 12 12 12 12 12 12 12 12 12 12 12 12 12 12 12 12 12 12 12 12
12 11 11 11 10 10 10 9 9 9 8 8 8 8 8 8 8 9 9 9 10 10 11 11 12 12 12 12 12 12 12 11 12 11 11 12 12 12 11 11 11 11 11
12 11 11 11 10 10 10 9 9 9 9 8 8 8 8 8 8 9 9 9 9 10 10 11 11 11 12 12 12 12 11 11 11 11 11 11 11 11 11 11 11 11 11
11 11 10 10 10 10 10 9 9 9 9 8 8 8 8 9 9 9 9 9 9 9 10 10 11 11 11 12 12 12 11 11 11 11 11 11 11 11 11 11 11 11 11
10 10 10 9 9 9 9 9 9 9 8 8 8 8 8 8 9 9 9 8 8 8 9 9 10 10 11 11 11 11 11 11 11 11 11 11 11 11 11 11 11 11 11
10 9 9 9 9 9 8 8 8 8 8 8 8 8 8 8 8 8 8 8 8 8 8 9 9 10 10 11 11 11 11 11 11 10 11 11 11 11 11 11 11 10 10
9 9 9 8 8 8 8 7 7 7 7 7 7 7 7 7 7 7 8 8 8 8 8 8 9 9 10 11 11 11 11 11 11 11 11 11 11 11 11 11 10 11 10
9 9 8 8 7 7 7 7 7 7 7 7 7 7 7 7 8 8 8 8 8 8 8 8 8 9 9 10 11 11 11 11 11 11 11 11 11 11 10 10 11 11 10
8 8 7 7 7 6 6 6 6 6 6 6 6 6 6 6 7 7 8 8 8 8 8 7 8 8 9 10 10 10 10 11 11 11 11 11 11 10 10 10 10 10 10
8 7 7 6 6 6 5 5 5 5 5 5 5 5 6 6 6 7 7 8 8 8 8 7 7 8 8 9 10 10 10 10 10 10 10 10 10 10 10 10 10 10 10
7 6 6 5 5 5 4 4 4 4 5 5 5 5 5 6 6 7 7 8 8 8 7 7 7 7 8 9 9 10 10 10 10 10 10 9 9 9 9 9 10 10 9
6 6 5 5 4 4 4 4 4 4 4 4 4 5 5 5 6 7 7 7 7 7 7 7 7 7 7 8 9 10 10 10 10 10 10 10 10 10 10 10 10 10 10
Wind_Speed
9 9 9 9 9 9 9 10 9 8 7 5 5 5 5 5 5 6 5 7 8 8 8 10 10 11 12 12 14 13 15 13 12 12 13 14 16 16 15 15 15 16 16
9 8 8 8 8 8 8 8 8 8 8 6 5 4 4 5 6 6 5 7 7 8 9 9 11 11 11 13 13 13 13 13 11 11 12 13 13 13 16 14 15 16 14
9 8 8 7 7 6 6 5 6 7 8 7 6 5 5 6 7 7 6 6 7 8 8 10 11 11 12 12 12 13 15 14 13 13 12 11 12 11 11 13 13 13 12
5 5 5 4 3 3 3 4 5 7 8 9 9 9 8 8 7 6 6 7 7 8 8 9 10 10 11 12 12 13 13 14 14 13 13 15 15 12 12 10 11 12 12
4 5 5 5 4 4 4 4 6 8 8 9 10 10 10 8 7 6 6 8 7 7 8 8 9 10 10 11 12 12 13 12 13 13 13 14 13 15 14 13 11 10 10
14 13 13 12 10 9 7 7 7 7 8 9 10 10 10 9 8 8 8 8 7 7 7 8 9 10 10 11 12 12 14 13 13 13 13 13 12 12 13 14 13 10 8
16 16 17 16 15 15 13 11 9 7 7 8 9 9 9 8 9 9 8 8 8 7 7 8 9 10 10 11 12 12 13 13 14 13 13 13 13 13 12 12 12 10 6
17 17 17 16 15 15 15 14 12 10 8 7 6 6 7 8 8 8 8 8 8 8 8 9 10 11 12 12 12 12 13 12 13 14 14 12 12 12 12 12 10 8 6
15 15 15 15 15 15 15 15 14 13 12 10 8 7 7 8 9 9 9 9 8 8 9 10 11 11 12 12 13 12 12 12 12 12 13 12 11 10 10 10 10 9 7
13 13 13 13 13 13 13 13 13 13 13 13 11 9 9 9 10 10 11 10 10 10 10 11 11 11 12 12 12 12 11 12 11 10 10 10 9 9 9 8 8 9 7
13 12 12 12 12 12 12 12 12 12 13 13 13 13 12 11 11 11 11 12 11 11 11 11 11 12 12 11 11 12 12 12 11 10 9 9 9 7 6 6 6 6 5
13 13 12 12 12 12 12 12 12 12 12 12 13 13 13 13 13 13 13 13 13 13 13 12 12 12 12 11 11 11 11 10 9 8 6 6 5 4 3 2 3 3 5
15 14 13 12 12 12 12 12 12 13 13 13 13 13 14 14 14 15 15 14 14 14 14 13 13 12 11 11 10 9 9 7 6 4 4 3 2 1 1 2 4 5 6
14 13 12 11 10 10 11 11 12 11 12 12 12 11 12 13 14 15 15 15 15 15 15 14 13 12 11 10 9 7 6 5 3 1 1 0 2 3 4 5 6 7 8
15 14 14 14 13 13 13 13 13 12 12 12 12 12 12 12 13 14 14 15 15 16 15 15 15 13 11 10 8 6 5 4 2 2 2 4 6 7 6 6 7 7 8
19 19 19 19 19 18 18 17 16 16 15 15 15 14 14 13 14 14 15 15 15 15 15 16 16 14 11 5 4 7 6 4 4 4 5 7 8 10 11 10 8 5 6
21 22 22 22 22 21 20 20 19 18 18 18 18 17 16 16 15 15 14 14 14 14 14 15 16 15 11 11 9 7 5 5 5 6 6 7 9 10 11 11 10 9 8
25 25 24 24 24 23 22 22 21 20 20 19 19 18 17 18 16 15 15 14 13 12 12 13 15 15 13 15 12 9 8 7 7 7 8 9 10 10 11 11 10 9 8
26 25 25 26 25 25 24 24 23 22 21 21 20 19 19 19 18 17 16 14 13 12 12 11 13 15 13 16 15 13 10 9 9 9 9 10 11 9 9 12 12 11 9
25 26 26 26 26 25 24 24 24 23 22 21 20 19 18 19 19 18 17 15 13 13 12 10 12 14 14 17 18 16 11 11 10 9 8 8 10 10 7 11 12 13 12
28 27 27 25 24 24 23 24 24 23 22 21 20 19 19 18 19 18 16 15 14 13 12 10 10 12 14 18 19 17 11 12 11 11 10 8 11 9 5 7 11 13 13
28 27 25 24 23 22 22 24 24 23 21 20 20 19 19 18 17 16 15 15 13 13 11 8 7 8 11 16 18 17 11 9 11 10 10 10 12 10 6 6 12 13 11
27 25 25 24 22 21 20 23 23 21 21 21 20 19 19 17 17 16 16 14 13 11 9 7 6 6 8 12 17 15 10 7 8 9 14 15 16 14 9 13 13 11 9
26 25 26 25 23 22 22 22 22 21 20 20 19 18 17 17 16 14 14 13 11 10 8 5 5 6 8 11 15 14 12 12 12 13 15 15 11 10 13 12 10 8 7
26 24 23 24 25 23 21 21 21 20 20 19 18 16 16 16 14 14 12 12 10 7 6 5 4 5 8 11 17 17 16 15 15 16 13 13 12 12 11 10 9 8 8
26 25 25 25 24 23 22 21 20 20 19 17 16 14 13 13 12 12 12 13 11 8 9 8 6 5 5 7 15 17 17 18 20 16 14 13 12 12 11 11 10 9 9
Wind_Direction
189 191 195 195 192 193 195 199 203 198 202 205 219 228 249 265 274 276 285 285 291 297 294 294 298 288 285 285 285 281 276 269 266 266 265 259 251 246 245 243 244 241 239
196 194 190 185 183 180 183 185 192 192 199 198 213 236 272 276 287 290 285 283 293 297 293 295 292 290 289 282 277 273 275 275 266 261 269 268 258 243 240 238 237 242 241
214 198 191 182 177 174 182 188 193 196 207 206 216 221 237 256 261 271 276 288 299 299 300 296 292 293 287 283 281 279 271 271 268 257 257 266 266 267 246 232 238 240 240
234 210 190 180 192 207 219 223 224 221 217 216 227 237 256 273 293 298 299 301 293 297 298 294 291 288 286 284 278 272 271 269 267 260 250 254 269 273 267 246 231 231 235
25 29 27 20 356 328 296 276 261 249 239 234 235 240 251 265 278 287 288 290 294 292 295 298 297 292 287 286 284 281 271 266 263 265 260 254 252 251 255 259 252 233 230
38 33 28 23 13 358 343 315 288 270 258 248 245 244 254 262 275 279 289 289 295 296 299 300 296 291 289 288 284 280 274 267 265 264 263 259 254 249 246 249 251 249 240
43 39 33 29 22 13 3 349 333 310 291 269 259 253 254 257 259 267 276 284 295 300 305 302 297 294 292 290 287 283 278 272 266 261 258 257 254 256 257 254 254 251 236
44 41 37 33 27 23 17 11 3 351 339 318 298 281 270 263 262 258 274 281 288 297 304 295 292 293 293 292 290 286 279 274 270 265 261 258 254 251 248 247 247 244 226
38 35 32 28 24 22 19 16 13 9 3 353 336 313 295 282 278 272 262 270 274 282 285 287 289 291 292 292 290 284 283 280 275 271 265 259 258 253 249 243 236 232 222
24 22 19 16 14 12 11 10 11 8 4 1 352 339 320 299 285 277 274 273 273 272 276 279 283 287 290 291 290 287 282 281 279 275 272 266 260 255 250 243 236 228 222
5 3 3 1 360 360 0 360 359 357 356 355 351 344 336 322 305 289 281 274 268 266 265 270 276 281 285 289 291 290 288 281 281 279 272 269 267 260 255 246 233 216 190
347 345 346 346 347 348 347 347 344 344 343 341 338 337 334 332 323 310 297 285 272 263 260 261 267 273 278 283 287 290 290 286 285 283 279 278 271 260 254 235 202 162 150
335 332 332 331 334 335 334 332 330 330 329 328 326 326 325 326 324 320 311 297 281 268 261 256 258 265 272 277 279 284 286 284 286 286 283 282 275 221 128 122 122 120 127
315 312 310 308 309 310 310 310 311 311 310 310 309 308 310 312 313 313 313 306 291 274 262 255 253 256 261 264 267 270 272 268 275 287 277 64 97 109 117 115 120 123 126
300 296 293 293 294 295 294 294 294 292 290 289 289 288 290 294 298 302 306 306 296 279 265 257 251 248 248 249 249 248 244 233 191 131 98 88 89 95 102 115 120 127 133
302 302 301 301 301 301 299 298 296 293 288 283 281 280 279 280 283 289 295 298 297 287 272 258 249 243 239 166 192 248 222 204 172 141 120 116 112 103 95 95 95 108 143
308 308 306 303 301 299 297 294 293 292 289 285 282 279 276 274 274 277 282 289 296 295 283 264 249 240 218 164 187 224 216 184 160 146 143 130 121 126 121 108 99 80 65
308 305 302 301 299 298 296 293 291 290 287 285 282 279 278 276 275 275 276 282 290 294 290 275 255 240 209 173 182 192 195 166 154 148 139 132 136 134 135 135 124 111 86
303 301 300 299 298 296 294 292 289 287 284 282 281 280 279 278 276 273 273 277 283 288 288 280 264 242 206 175 177 190 179 163 155 149 144 145 142 136 145 139 131 120 103
303 301 299 297 295 294 293 291 288 285 282 281 280 279 278 276 275 272 271 273 276 280 283 279 266 245 214 177 178 196 180 164 156 146 141 138 140 150 168 151 144 138 132
301 300 299 297 296 295 293 288 286 283 282 281 279 277 274 272 270 268 264 264 268 274 278 278 269 247 220 178 179 196 186 168 167 161 159 141 135 153 174 176 154 143 142
303 303 301 298 298 296 292 287 284 284 282 279 276 274 271 268 269 263 258 258 263 266 270 272 272 250 219 184 181 190 206 179 171 164 150 135 140 144 151 141 125 139 157
304 303 301 298 296 293 289 286 286 285 283 278 275 272 268 263 262 261 256 253 252 256 262 270 260 245 220 182 167 173 175 167 160 135 116 129 137 135 121 124 139 164 169
305 303 301 298 295 292 288 285 284 282 278 274 272 269 265 260 255 250 248 249 250 251 251 259 252 234 216 184 173 171 159 138 127 121 121 130 142 129 120 144 168 181 161
303 301 299 296 294 293 288 284 282 278 275 272 268 264 262 259 256 248 243 248 250 250 249 253 242 225 213 191 173 170 169 167 148 141 144 148 149 150 154 158 158 153 151
303 301 298 296 295 293 289 284 279 275 271 267 262 257 254 253 248 242 236 218 230 178 193 218 228 228 226 182 165 161 147 138 144 153 155 158 159 159 157 157 157 159 158
Height
1508 1510 1511 1512 1514 1515 1516 1519 1521 1522 1523 1525 1526 1527 1527 1527 1526 1524 1522 1520 1518 1516 1513 1512 1510 1508 1507 1505 1503 1502 1500 1499 1499 1497 1495 1494 1494 1494 1494 1495 1496 1496 1497
1506 1508 1509 1510 1512 1514 1516 1517 1519 1521 1522 1523 1523 1524 1524 1524 1522 1520 1518 1516 1513 1511 1509 1507 1505 1503 1501 1498 1496 1495 1494 1493 1494 1492 1491 1489 1488 1486 1487 1487 1488 1489 1490
1505 1507 1508 1510 1512 1513 1515 1516 1517 1518 1520 1520 1521 1521 1520 1519 1519 1517 1515 1512 1509 1506 1504 1501 1499 1497 1495 1493 1491 1489 1488 1487 1487 1487 1486 1484 1480 1480 1480 1480 1481 1482 1483
1504 1506 1508 1510 1512 1513 1515 1515 1515 1516 1517 1517 1518 1518 1518 1517 1516 1513 1511 1508 1505 1502 1499 1497 1494 1492 1490 1487 1485 1484 1482 1481 1480 1480 1479 1479 1478 1477 1475 1475 1475 1475 1476
1504 1506 1508 1510 1512 1513 1513 1513 1513 1513 1514 1514 1514 1514 1514 1513 1512 1509 1507 1504 1502 1498 1495 1493 1490 1487 1485 1482 1480 1477 1476 1475 1473 1473 1473 1472 1471 1471 1471 1470 1470 1470 1470
1507 1507 1507 1508 1509 1511 1511 1511 1510 1510 1510 1510 1510 1510 1509 1508 1507 1505 1503 1501 1499 1496 1493 1489 1486 1483 1481 1478 1475 1472 1470 1468 1467 1466 1466 1466 1465 1465 1465 1464 1464 1464 1465
1509 1508 1508 1507 1508 1508 1507 1507 1506 1506 1506 1505 1505 1505 1504 1503 1502 1501 1500 1497 1495 1492 1489 1486 1483 1480 1477 1474 1471 1468 1465 1463 1461 1460 1459 1458 1458 1459 1459 1459 1458 1459 1459
1513 1512 1511 1510 1509 1508 1506 1504 1503 1502 1501 1500 1499 1499 1498 1498 1498 1496 1494 1492 1490 1488 1485 1481 1479 1476 1473 1470 1467 1464 1461 1458 1456 1454 1453 1452 1451 1452 1452 1452 1453 1454 1455
1518 1516 1515 1514 1512 1509 1507 1504 1502 1500 1498 1496 1495 1494 1493 1492 1492 1490 1488 1487 1485 1483 1480 1477 1475 1472 1469 1466 1463 1460 1457 1454 1451 1449 1448 1446 1445 1445 1446 1446 1447 1450 1451
1520 1519 1517 1515 1513 1510 1508 1504 1501 1499 1496 1494 1492 1491 1489 1487 1486 1484 1483 1481 1480 1478 1476 1474 1471 1468 1466 1463 1459 1456 1453 1450 1447 1444 1442 1441 1440 1440 1440 1441 1442 1444 1447
1522 1520 1518 1515 1513 1510 1507 1504 1500 1497 1494 1491 1489 1486 1484 1482 1480 1478 1476 1475 1474 1472 1471 1469 1467 1464 1462 1459 1456 1453 1449 1446 1443 1440 1438 1437 1436 1435 1436 1437 1438 1440 1442
1522 1519 1517 1514 1511 1507 1504 1501 1498 1494 1491 1488 1485 1483 1480 1477 1474 1472 1470 1469 1467 1466 1465 1463 1462 1460 1458 1455 1452 1449 1446 1442 1440 1437 1435 1433 1433 1432 1433 1433 1435 1437 1439
1519 1516 1513 1510 1507 1503 1499 1496 1493 1490 1486 1483 1480 1477 1475 1472 1469 1466 1464 1462 1460 1459 1458 1457 1456 1454 1453 1451 1448 1445 1442 1439 1437 1435 1433 1432 1431 1431 1431 1432 1433 1436 1439
1514 1511 1507 1503 1500 1496 1493 1489 1486 1482 1479 1476 1473 1470 1467 1465 1462 1460 1457 1455 1453 1452 1451 1451 1450 1449 1448 1446 1444 1441 1439 1437 1435 1433 1432 1431 1430 1430 1431 1432 1434 1436 1439
1508 1505 1501 1497 1494 1490 1486 1483 1479 1476 1472 1469 1466 1463 1460 1458 1455 1452 1450 1448 1446 1445 1444 1444 1443 1443 1442 1441 1440 1438 1436 1435 1433 1432 1432 1431 1431 1431 1432 1434 1436 1438 1441
1502 1498 1495 1491 1488 1484 1480 1476 1472 1469 1465 1462 1459 1456 1453 1451 1448 1446 1444 1442 1440 1437 1436 1435 1436 1437 1437 1436 1435 1434 1434 1433 1432 1432 1432 1432 1432 1433 1435 1437 1439 1442 1445
1495 1492 1488 1484 1480 1477 1472 1468 1464 1461 1458 1454 1451 1448 1446 1444 1442 1440 1438 1436 1433 1430 1428 1427 1428 1429 1430 1430 1430 1430 1431 1431 1431 1432 1432 1433 1434 1436 1438 1440 1443 1446 1449
1490 1485 1481 1476 1472 1468 1464 1460 1456 1453 1449 1446 1443 1440 1438 1436 1435 1433 1431 1429 1426 1423 1421 1419 1420 1421 1423 1424 1426 1427 1429 1430 1430 1431 1433 1434 1436 1438 1440 1443 1446 1449 1452
1482 1477 1472 1467 1462 1458 1454 1450 1446 1443 1440 1437 1434 1432 1430 1428 1426 1425 1424 1422 1420 1417 1414 1412 1411 1413 1416 1418 1421 1424 1427 1428 1430 1432 1433 1435 1438 1440 1443 1445 1448 1451 1454
1474 1468 1463 1458 1453 1448 1444 1440 1436 1433 1430 1427 1425 1423 1421 1419 1417 1416 1415 1414 1412 1410 1407 1404 1403 1405 1408 1412 1416 1420 1424 1426 1429 1431 1433 1436 1439 1442 1444 1447 1450 1453 1456
1464 1458 1452 1447 1442 1438 1434 1429 1425 1422 1419 1417 1415 1413 1411 1410 1408 1407 1406 1405 1404 1403 1401 1397 1395 1397 1401 1405 1410 1416 1421 1424 1427 1431 1434 1436 1439 1442 1445 1449 1452 1454 1457
1454 1448 1442 1436 1432 1428 1423 1417 1414 1411 1408 1406 1404 1402 1401 1400 1399 1398 1397 1397 1397 1396 1394 1391 1389 1389 1393 1398 1405 1411 1417 1422 1426 1430 1432 1435 1438 1442 1446 1449 1452 1455 1458
1444 1438 1432 1425 1420 1416 1412 1406 1402 1399 1397 1394 1392 1391 1390 1390 1390 1389 1389 1390 1389 1388 1387 1385 1384 1383 1386 1392 1400 1408 1414 1420 1424 1428 1430 1434 1439 1443 1446 1449 1452 1456 1459
1434 1427 1421 1414 1408 1404 1399 1394 1390 1387 1384 1382 1381 1380 1380 1379 1380 1380 1381 1382 1382 1381 1381 1380 1379 1379 1381 1387 1395 1403 1410 1417 1421 1425 1430 1434 1439 1443 1446 1449 1453 1457 1460
1423 1417 1409 1402 1395 1390 1385 1381 1377 1374 1371 1370 1369 1369 1369 1370 1370 1371 1373 1374 1375 1376 1376 1375 1374 1375 1377 1384 1392 1399 1407 1414 1419 1424 1429 1435 1439 1443 1447 1450 1453 1456 1458
1412 1404 1397 1389 1382 1376 1371 1367 1364 1361 1359 1358 1358 1358 1359 1360 1362 1363 1365 1367 1369 1369 1370 1370 1371 1372 1375 1381 1390 1399 1406 1413 1418 1424 1429 1434 1439 1442 1446 1449 1452 1455 1458